Zurück zum Katalog

STARLINK-4644

AktivKommunikationVLEO
NORAD 53719·PAYLOAD·🇺🇸 United States

Gestartet Sep 5, 2022 von Cape Canaveral Space Force Station

Loading…

Nächste Überflüge (nächste 24 Stunden)

TLE

AktuellSource: CelesTrak SupGP

Epoche: Sep 14, 2026, 22:10 UTC

1 53719C 22107V   26257.92409722  .00038771  00000+0  11456-2 0  2575
2 53719  53.1577  87.8763 0001244  82.9213 118.9793 15.34367758    18

Verfolge STARLINK-4644 in Echtzeit mit AllMySat

Download on the App Store